Year,Month,Day,Hour,Minute,Value (Times are PST for temperature in C)
2015,06,23,00,00,17.80
2015,06,23,00,01,17.80
2015,06,23,00,02,17.80
2015,06,23,00,03,17.80
2015,06,23,00,04,17.80
2015,06,23,00,05,17.80
2015,06,23,00,06,17.80
2015,06,23,00,07,17.70
2015,06,23,00,08,17.70
2015,06,23,00,09,17.70
2015,06,23,00,10,17.70
2015,06,23,00,11,17.70
2015,06,23,00,12,17.70
2015,06,23,00,13,17.60
2015,06,23,00,14,17.60
2015,06,23,00,15,17.60
2015,06,23,00,16,17.60
2015,06,23,00,17,17.60
2015,06,23,00,18,17.60
2015,06,23,00,19,17.60
2015,06,23,00,20,17.50
2015,06,23,00,21,17.50
2015,06,23,00,22,17.50
2015,06,23,00,23,17.50
2015,06,23,00,24,17.40
2015,06,23,00,25,17.40
2015,06,23,00,26,17.40
2015,06,23,00,27,17.40
2015,06,23,00,28,17.40
2015,06,23,00,29,17.50
2015,06,23,00,30,17.50
2015,06,23,00,31,17.50
2015,06,23,00,32,17.50
2015,06,23,00,33,17.50
2015,06,23,00,34,17.50
2015,06,23,00,35,17.40
2015,06,23,00,36,17.40
2015,06,23,00,37,17.40
2015,06,23,00,38,17.40
2015,06,23,00,39,17.40
2015,06,23,00,40,17.40
2015,06,23,00,41,17.40
2015,06,23,00,42,17.40
2015,06,23,00,43,17.40
2015,06,23,00,44,17.40
2015,06,23,00,45,17.40
2015,06,23,00,46,17.40
2015,06,23,00,47,17.40
2015,06,23,00,48,17.40
2015,06,23,00,49,17.40
2015,06,23,00,50,17.40
2015,06,23,00,51,17.40
2015,06,23,00,52,17.30
2015,06,23,00,53,17.30
2015,06,23,00,54,17.30
2015,06,23,00,55,17.20
2015,06,23,00,56,17.10
2015,06,23,00,57,17.00
2015,06,23,00,58,17.00
2015,06,23,00,59,16.90
2015,06,23,01,00,16.80
2015,06,23,01,01,16.80
2015,06,23,01,02,16.70
2015,06,23,01,03,16.70
2015,06,23,01,04,16.60
2015,06,23,01,05,16.50
2015,06,23,01,06,16.40
2015,06,23,01,07,16.40
2015,06,23,01,08,16.30
2015,06,23,01,09,16.30
2015,06,23,01,10,16.20
2015,06,23,01,11,16.20
2015,06,23,01,12,16.20
2015,06,23,01,13,16.20
2015,06,23,01,14,16.20
2015,06,23,01,15,16.20
2015,06,23,01,16,16.20
2015,06,23,01,17,16.30
2015,06,23,01,18,16.30
2015,06,23,01,19,16.30
2015,06,23,01,20,16.20
2015,06,23,01,21,16.20
2015,06,23,01,22,16.10
2015,06,23,01,23,16.10
2015,06,23,01,24,16.10
2015,06,23,01,25,16.10
2015,06,23,01,26,16.10
2015,06,23,01,27,16.10
2015,06,23,01,28,16.10
2015,06,23,01,29,16.00
2015,06,23,01,30,16.10
2015,06,23,01,31,16.10
2015,06,23,01,32,16.10
2015,06,23,01,33,16.10
2015,06,23,01,34,16.10
2015,06,23,01,35,16.10
2015,06,23,01,36,16.10
2015,06,23,01,37,16.10
2015,06,23,01,38,16.10
2015,06,23,01,39,16.10
2015,06,23,01,40,16.10
2015,06,23,01,41,16.10
2015,06,23,01,42,16.10
2015,06,23,01,43,16.10
2015,06,23,01,44,16.00
2015,06,23,01,45,15.90
2015,06,23,01,46,15.90
2015,06,23,01,47,15.90
2015,06,23,01,48,15.90
2015,06,23,01,49,15.90
2015,06,23,01,50,15.90
2015,06,23,01,51,16.00
2015,06,23,01,52,16.00
2015,06,23,01,53,16.00
2015,06,23,01,54,16.00
2015,06,23,01,55,16.10
2015,06,23,01,56,16.10
2015,06,23,01,57,16.10
2015,06,23,01,58,16.10
2015,06,23,01,59,16.10
2015,06,23,02,00,16.00
2015,06,23,02,01,15.90
2015,06,23,02,02,15.90
2015,06,23,02,03,15.90
2015,06,23,02,04,15.90
2015,06,23,02,05,16.00
2015,06,23,02,06,16.10
2015,06,23,02,07,16.00
2015,06,23,02,08,15.90
2015,06,23,02,09,15.80
2015,06,23,02,10,15.80
2015,06,23,02,11,15.80
2015,06,23,02,12,15.80
2015,06,23,02,13,15.90
2015,06,23,02,14,15.90
2015,06,23,02,15,15.90
2015,06,23,02,16,15.90
2015,06,23,02,17,15.90
2015,06,23,02,18,15.80
2015,06,23,02,19,15.80
2015,06,23,02,20,15.70
2015,06,23,02,21,15.60
2015,06,23,02,22,15.50
2015,06,23,02,23,15.40
2015,06,23,02,24,15.30
2015,06,23,02,25,15.30
2015,06,23,02,26,15.20
2015,06,23,02,27,15.10
2015,06,23,02,28,15.10
2015,06,23,02,29,15.00
2015,06,23,02,30,14.90
2015,06,23,02,31,14.90
2015,06,23,02,32,14.80
2015,06,23,02,33,14.80
2015,06,23,02,34,14.70
2015,06,23,02,35,14.70
2015,06,23,02,36,14.60
2015,06,23,02,37,14.50
2015,06,23,02,38,14.30
2015,06,23,02,39,14.10
2015,06,23,02,40,14.00
2015,06,23,02,41,13.80
2015,06,23,02,42,13.80
2015,06,23,02,43,13.70
2015,06,23,02,44,13.70
2015,06,23,02,45,13.60
2015,06,23,02,46,13.60
2015,06,23,02,47,13.50
2015,06,23,02,48,13.40
2015,06,23,02,49,13.30
2015,06,23,02,50,13.30
2015,06,23,02,51,13.20
2015,06,23,02,52,13.10
2015,06,23,02,53,13.00
2015,06,23,02,54,13.00
2015,06,23,02,55,12.90
2015,06,23,02,56,12.90
2015,06,23,02,57,12.80
2015,06,23,02,58,12.80
2015,06,23,02,59,12.70
2015,06,23,03,00,12.70
2015,06,23,03,01,12.70
2015,06,23,03,02,12.70
2015,06,23,03,06,12.50
2015,06,23,03,07,12.40
2015,06,23,03,08,12.40
2015,06,23,03,09,12.40
2015,06,23,03,10,12.40
2015,06,23,03,11,12.40
2015,06,23,03,12,12.30
2015,06,23,03,13,12.30
2015,06,23,03,14,12.30
2015,06,23,03,15,12.20
2015,06,23,03,16,12.20
2015,06,23,03,17,12.20
2015,06,23,03,18,12.10
2015,06,23,03,19,12.00
2015,06,23,03,20,11.90
2015,06,23,03,21,11.90
2015,06,23,03,22,11.80
2015,06,23,03,23,11.80
2015,06,23,03,24,11.70
2015,06,23,03,25,11.70
2015,06,23,03,26,11.70
2015,06,23,03,27,11.70
2015,06,23,03,28,11.60
2015,06,23,03,29,11.60
2015,06,23,03,30,11.60
2015,06,23,03,31,11.50
2015,06,23,03,32,11.50
2015,06,23,03,33,11.40
2015,06,23,03,34,11.40
2015,06,23,03,35,11.30
2015,06,23,03,36,11.30
2015,06,23,03,37,11.30
2015,06,23,03,38,11.40
2015,06,23,03,39,11.40
2015,06,23,03,40,11.50
2015,06,23,03,41,11.60
2015,06,23,03,42,11.70
2015,06,23,03,43,11.70
2015,06,23,03,44,11.70
2015,06,23,03,45,11.60
2015,06,23,03,46,11.50
2015,06,23,03,47,11.50
2015,06,23,03,48,11.40
2015,06,23,03,49,11.40
2015,06,23,03,50,11.30
2015,06,23,03,51,11.30
2015,06,23,03,52,11.30
2015,06,23,03,53,11.20
2015,06,23,03,54,11.20
2015,06,23,03,55,11.10
2015,06,23,03,56,11.10
2015,06,23,03,57,11.00
2015,06,23,03,58,11.00
2015,06,23,03,59,11.00
2015,06,23,04,00,10.90
2015,06,23,04,01,10.90
2015,06,23,04,02,11.00
2015,06,23,04,03,11.00
2015,06,23,04,04,11.00
2015,06,23,04,05,11.00
2015,06,23,04,06,11.00
2015,06,23,04,07,10.90
2015,06,23,04,08,10.90
2015,06,23,04,09,10.90
2015,06,23,04,10,10.90
2015,06,23,04,11,10.80
2015,06,23,04,12,10.80
2015,06,23,04,13,10.80
2015,06,23,04,14,10.70
2015,06,23,04,15,10.70
2015,06,23,04,16,10.60
2015,06,23,04,17,10.50
2015,06,23,04,18,10.50
2015,06,23,04,19,10.50
2015,06,23,04,20,10.40
2015,06,23,04,21,10.40
2015,06,23,04,22,10.40
2015,06,23,04,23,10.40
2015,06,23,04,24,10.40
2015,06,23,04,25,10.40
2015,06,23,04,26,10.40
2015,06,23,04,27,10.40
2015,06,23,04,28,10.30
2015,06,23,04,29,10.30
2015,06,23,04,30,10.30
2015,06,23,04,31,10.20
2015,06,23,04,32,10.10
2015,06,23,04,33,10.10
2015,06,23,04,34,10.00
2015,06,23,04,35,9.90
2015,06,23,04,36,9.80
2015,06,23,04,37,9.80
2015,06,23,04,38,9.70
2015,06,23,04,39,9.70
2015,06,23,04,40,9.70
2015,06,23,04,41,9.60
2015,06,23,04,42,9.60
2015,06,23,04,43,9.60
2015,06,23,04,44,9.50
2015,06,23,04,45,9.50
2015,06,23,04,46,9.50
2015,06,23,04,47,9.40
2015,06,23,04,48,9.30
2015,06,23,04,49,9.30
2015,06,23,04,50,9.30
2015,06,23,04,51,9.30
2015,06,23,04,52,9.30
2015,06,23,04,53,9.30
2015,06,23,04,54,9.30
2015,06,23,04,55,9.30
2015,06,23,04,56,9.30
2015,06,23,04,57,9.30
2015,06,23,06,04,9.70
2015,06,23,06,05,9.70
2015,06,23,06,06,9.80
2015,06,23,06,07,9.80
2015,06,23,06,08,9.80
2015,06,23,06,09,9.90
2015,06,23,06,10,10.00
2015,06,23,06,11,10.10
2015,06,23,06,12,10.20
2015,06,23,06,13,10.30
2015,06,23,06,14,10.50
2015,06,23,06,15,10.60
2015,06,23,06,16,10.70
2015,06,23,06,17,10.80
2015,06,23,06,18,10.90
2015,06,23,06,19,11.00
2015,06,23,06,20,11.10
2015,06,23,06,21,11.30
2015,06,23,06,22,11.30
2015,06,23,06,23,11.40
2015,06,23,06,24,11.50
2015,06,23,06,25,11.60
2015,06,23,06,26,11.70
2015,06,23,06,27,11.70
2015,06,23,06,28,11.80
2015,06,23,06,29,11.90
2015,06,23,06,30,12.00
2015,06,23,06,31,12.10
2015,06,23,06,32,12.20
2015,06,23,06,33,12.30
2015,06,23,06,34,12.40
2015,06,23,06,35,12.50
2015,06,23,06,36,12.60
2015,06,23,06,37,12.70
2015,06,23,06,38,12.70
2015,06,23,06,39,12.80
2015,06,23,06,40,12.80
2015,06,23,06,41,12.90
2015,06,23,06,42,13.00
2015,06,23,06,43,13.20
2015,06,23,06,44,13.20
2015,06,23,06,45,13.40
2015,06,23,06,46,13.50
2015,06,23,06,47,13.60
2015,06,23,06,48,13.80
2015,06,23,06,49,14.00
2015,06,23,06,50,14.20
2015,06,23,06,51,14.30
2015,06,23,06,52,14.40
2015,06,23,06,53,14.50
2015,06,23,06,54,14.60
2015,06,23,06,55,14.70
2015,06,23,06,56,14.70
2015,06,23,06,57,14.80
2015,06,23,06,58,14.80
2015,06,23,06,59,14.80
2015,06,23,07,00,14.80
2015,06,23,07,01,14.80
2015,06,23,07,02,14.80
2015,06,23,07,03,14.80
2015,06,23,07,04,14.90
2015,06,23,07,05,14.90
2015,06,23,07,06,15.00
2015,06,23,07,07,15.00
2015,06,23,07,08,15.10
2015,06,23,07,09,15.20
2015,06,23,07,10,15.30
2015,06,23,07,11,15.40
2015,06,23,07,12,15.40
2015,06,23,07,13,15.50
2015,06,23,07,14,15.50
2015,06,23,07,15,15.50
2015,06,23,07,16,15.50
2015,06,23,07,17,15.40
2015,06,23,07,18,15.40
2015,06,23,07,19,15.40
2015,06,23,07,20,15.50
2015,06,23,07,21,15.50
2015,06,23,07,22,15.50
2015,06,23,07,23,15.60
2015,06,23,07,24,15.60
2015,06,23,07,25,15.60
2015,06,23,07,26,15.60
2015,06,23,07,27,15.60
2015,06,23,07,28,15.70
2015,06,23,07,29,15.70
2015,06,23,07,30,15.70
2015,06,23,07,31,15.70
2015,06,23,07,32,15.70
2015,06,23,07,33,15.70
2015,06,23,07,34,15.70
2015,06,23,07,35,15.80
2015,06,23,07,36,15.80
2015,06,23,07,37,15.80
2015,06,23,07,38,15.90
2015,06,23,07,39,15.90
2015,06,23,07,40,16.00
2015,06,23,07,41,16.00
2015,06,23,07,42,16.10
2015,06,23,07,43,16.10
2015,06,23,07,44,16.10
2015,06,23,07,45,16.10
2015,06,23,07,46,16.10
2015,06,23,07,47,16.10
2015,06,23,07,48,16.20
2015,06,23,07,49,16.30
2015,06,23,07,50,16.30
2015,06,23,07,51,16.30
2015,06,23,07,52,16.30
2015,06,23,07,53,16.30
2015,06,23,07,54,16.40
2015,06,23,07,55,16.40
2015,06,23,07,56,16.40
2015,06,23,07,57,16.50
2015,06,23,07,58,16.50
2015,06,23,07,59,16.50
2015,06,23,08,00,16.50
2015,06,23,08,01,16.50
2015,06,23,08,02,16.50
2015,06,23,08,03,16.50
2015,06,23,08,04,16.60
2015,06,23,08,05,16.60
2015,06,23,08,06,16.60
2015,06,23,08,07,16.60
2015,06,23,08,08,16.60
2015,06,23,08,09,16.60
2015,06,23,08,10,16.70
2015,06,23,08,11,16.90
2015,06,23,08,12,17.10
2015,06,23,08,13,17.20
2015,06,23,08,14,17.30
2015,06,23,08,15,17.40
2015,06,23,08,16,17.50
2015,06,23,08,17,17.50
2015,06,23,08,18,17.40
2015,06,23,08,19,17.40
2015,06,23,08,20,17.40
2015,06,23,08,21,17.50
2015,06,23,08,22,17.50
2015,06,23,08,23,17.50
2015,06,23,08,24,17.60
2015,06,23,08,25,17.60
2015,06,23,08,26,17.60
2015,06,23,08,27,17.60
2015,06,23,08,28,17.70
2015,06,23,08,29,17.60
2015,06,23,08,30,17.60
2015,06,23,08,31,17.60
2015,06,23,08,32,17.60
2015,06,23,08,33,17.70
2015,06,23,08,34,17.70
2015,06,23,08,35,17.80
2015,06,23,08,36,17.80
2015,06,23,08,37,17.80
2015,06,23,08,38,17.90
2015,06,23,08,39,18.00
2015,06,23,08,40,18.10
2015,06,23,08,41,18.20
2015,06,23,08,42,18.40
2015,06,23,08,43,18.50
2015,06,23,08,44,18.60
2015,06,23,08,45,18.80
2015,06,23,08,46,18.90
2015,06,23,08,47,19.00
2015,06,23,08,48,19.20
2015,06,23,08,49,19.30
2015,06,23,08,50,19.20
2015,06,23,08,51,19.20
2015,06,23,08,52,19.10
2015,06,23,08,53,19.00
2015,06,23,08,54,19.00
2015,06,23,08,55,19.00
2015,06,23,08,56,19.10
2015,06,23,08,57,19.20
2015,06,23,08,58,19.20
2015,06,23,08,59,19.20
2015,06,23,09,00,19.20
2015,06,23,09,01,19.10
2015,06,23,09,02,19.10
2015,06,23,09,03,19.20
2015,06,23,09,04,19.20
2015,06,23,09,05,19.30
2015,06,23,09,06,19.30
2015,06,23,09,07,19.40
2015,06,23,09,08,19.40
2015,06,23,09,09,19.40
2015,06,23,09,10,19.30
2015,06,23,09,11,19.30
2015,06,23,09,12,19.30
2015,06,23,09,13,19.30
2015,06,23,09,14,19.40
2015,06,23,09,15,19.40
2015,06,23,09,16,19.30
2015,06,23,09,17,19.20
2015,06,23,09,18,19.10
2015,06,23,09,19,18.90
2015,06,23,09,20,18.70
2015,06,23,09,21,18.60
2015,06,23,09,22,18.60
2015,06,23,09,23,18.60
2015,06,23,09,24,18.50
2015,06,23,09,25,18.40
2015,06,23,09,26,18.30
2015,06,23,09,27,18.20
2015,06,23,09,28,18.20
2015,06,23,09,29,18.10
2015,06,23,09,30,18.20
2015,06,23,09,31,18.30
2015,06,23,09,32,18.50
2015,06,23,09,33,18.50
2015,06,23,09,34,18.60
2015,06,23,09,35,18.50
2015,06,23,09,36,18.40
2015,06,23,09,37,18.20
2015,06,23,09,38,18.20
2015,06,23,09,39,18.20
2015,06,23,09,40,18.10
2015,06,23,09,41,18.10
2015,06,23,09,42,18.00
2015,06,23,09,43,18.00
2015,06,23,09,44,18.10
2015,06,23,09,45,18.20
2015,06,23,09,46,18.20
2015,06,23,09,47,18.20
2015,06,23,09,48,18.20
2015,06,23,09,49,18.30
2015,06,23,09,50,18.50
2015,06,23,09,51,18.60
2015,06,23,09,52,18.70
2015,06,23,09,53,18.80
2015,06,23,09,54,18.90
2015,06,23,09,55,19.00
2015,06,23,09,56,19.00
2015,06,23,09,57,19.10
2015,06,23,09,58,19.00
2015,06,23,09,59,19.00
2015,06,23,10,00,19.00
2015,06,23,10,01,18.90
2015,06,23,10,02,19.00
2015,06,23,10,03,19.00
2015,06,23,10,04,19.00
2015,06,23,10,05,18.90
2015,06,23,10,06,18.90
2015,06,23,10,07,19.00
2015,06,23,10,08,19.00
2015,06,23,10,09,19.00
2015,06,23,10,10,19.00
2015,06,23,10,11,19.00
2015,06,23,10,12,19.10
2015,06,23,10,13,19.20
2015,06,23,10,14,19.20
2015,06,23,10,15,19.20
2015,06,23,10,16,19.20
2015,06,23,10,17,19.00
2015,06,23,10,18,18.80
2015,06,23,10,19,18.80
2015,06,23,10,20,18.70
2015,06,23,10,21,18.70
2015,06,23,10,22,18.70
2015,06,23,10,23,18.80
2015,06,23,10,24,18.90
2015,06,23,10,25,19.00
2015,06,23,10,26,19.00
2015,06,23,10,27,19.10
2015,06,23,10,28,19.10
2015,06,23,10,29,19.00
2015,06,23,10,30,19.10
2015,06,23,10,31,19.20
2015,06,23,10,32,19.20
2015,06,23,10,33,19.30
2015,06,23,10,34,19.20
2015,06,23,10,35,19.10
2015,06,23,10,36,19.10
2015,06,23,10,37,19.20
2015,06,23,10,38,19.20
2015,06,23,10,39,19.20
2015,06,23,10,40,19.20
2015,06,23,10,41,19.20
2015,06,23,10,42,19.20
2015,06,23,10,43,19.20
2015,06,23,10,44,19.20
2015,06,23,10,45,19.20
2015,06,23,10,46,19.20
2015,06,23,10,47,19.20
2015,06,23,10,48,19.10
2015,06,23,10,49,19.10
2015,06,23,10,50,19.20
2015,06,23,10,51,19.10
2015,06,23,10,52,19.20
2015,06,23,10,53,19.10
2015,06,23,10,54,19.10
2015,06,23,10,55,19.10
2015,06,23,10,56,19.20
2015,06,23,10,57,19.30
2015,06,23,10,58,19.40
2015,06,23,10,59,19.50
2015,06,23,11,00,19.60
2015,06,23,11,01,19.60
2015,06,23,11,02,19.60
2015,06,23,11,03,19.70
2015,06,23,11,04,19.80
2015,06,23,11,05,19.80
2015,06,23,11,06,19.80
2015,06,23,11,07,19.80
2015,06,23,11,08,19.80
2015,06,23,11,09,19.80
2015,06,23,11,10,19.80
2015,06,23,11,11,19.80
2015,06,23,11,12,19.70
2015,06,23,11,13,19.60
2015,06,23,11,14,19.60
2015,06,23,11,15,19.60
2015,06,23,11,16,19.70
2015,06,23,11,17,19.60
2015,06,23,11,18,19.60
2015,06,23,11,19,19.70
2015,06,23,11,20,19.80
2015,06,23,11,21,19.80
2015,06,23,11,22,20.00
2015,06,23,11,23,20.10
2015,06,23,11,24,20.10
2015,06,23,11,25,20.20
2015,06,23,11,26,20.20
2015,06,23,11,27,20.00
2015,06,23,11,28,20.00
2015,06,23,11,29,20.00
2015,06,23,11,30,20.10
2015,06,23,11,31,20.10
2015,06,23,11,32,20.10
2015,06,23,11,33,20.10
2015,06,23,11,34,20.10
2015,06,23,11,35,20.00
2015,06,23,11,36,19.80
2015,06,23,11,37,19.60
2015,06,23,11,38,19.50
2015,06,23,11,39,19.40
2015,06,23,11,40,19.50
2015,06,23,11,41,19.50
2015,06,23,11,42,19.50
2015,06,23,11,43,19.60
2015,06,23,11,44,19.70
2015,06,23,11,45,19.80
2015,06,23,11,46,19.90
2015,06,23,11,47,20.00
2015,06,23,11,48,20.10
2015,06,23,11,49,20.10
2015,06,23,11,50,20.00
2015,06,23,11,51,20.00
2015,06,23,11,52,19.90
2015,06,23,11,53,19.90
2015,06,23,11,54,19.80
2015,06,23,11,55,19.70
2015,06,23,11,56,19.70
2015,06,23,11,57,19.80
2015,06,23,11,58,19.80
2015,06,23,11,59,20.00
2015,06,23,12,00,20.00
2015,06,23,12,01,20.00
2015,06,23,12,02,20.00
2015,06,23,12,03,20.00
2015,06,23,12,04,19.90
2015,06,23,12,05,19.80
2015,06,23,12,06,19.70
2015,06,23,12,07,19.70
2015,06,23,12,08,19.70
2015,06,23,12,09,19.70
2015,06,23,12,10,19.70
2015,06,23,12,11,19.70
2015,06,23,12,12,19.70
2015,06,23,12,13,19.70
2015,06,23,12,14,19.80
2015,06,23,12,15,19.90
2015,06,23,12,16,20.10
2015,06,23,12,17,20.20
2015,06,23,12,18,20.10
2015,06,23,12,19,20.10
2015,06,23,12,20,20.00
2015,06,23,12,21,19.90
2015,06,23,12,22,19.90
2015,06,23,12,23,20.00
2015,06,23,12,24,20.20
2015,06,23,12,25,20.30
2015,06,23,12,26,20.40
2015,06,23,12,27,20.50
2015,06,23,12,28,20.50
2015,06,23,12,29,20.60
2015,06,23,12,30,20.70
2015,06,23,12,31,20.80
2015,06,23,12,32,20.80
2015,06,23,12,33,20.70
2015,06,23,12,34,20.60
2015,06,23,12,35,20.40
2015,06,23,12,36,20.30
2015,06,23,12,37,20.20
2015,06,23,12,38,20.10
2015,06,23,12,39,20.10
2015,06,23,12,40,20.20
2015,06,23,12,41,20.40
2015,06,23,12,42,20.50
2015,06,23,12,43,20.60
2015,06,23,12,44,20.60
2015,06,23,12,45,20.50
2015,06,23,12,46,20.40
2015,06,23,12,47,20.40
2015,06,23,12,48,20.30
2015,06,23,12,49,20.30
2015,06,23,12,50,20.30
2015,06,23,12,51,20.30
2015,06,23,12,52,20.40
2015,06,23,12,53,20.40
2015,06,23,12,54,20.50
2015,06,23,12,55,20.70
2015,06,23,12,56,20.70
2015,06,23,12,57,20.80
2015,06,23,12,58,20.80
2015,06,23,12,59,20.90
2015,06,23,13,00,21.00
2015,06,23,13,01,21.10
2015,06,23,13,02,21.10
2015,06,23,13,03,21.10
2015,06,23,13,04,21.00
2015,06,23,13,05,21.00
2015,06,23,13,06,21.00
2015,06,23,13,07,21.10
2015,06,23,13,08,21.10
2015,06,23,13,09,21.20
2015,06,23,13,10,21.10
2015,06,23,13,11,21.10
2015,06,23,13,12,21.10
2015,06,23,13,13,21.20
2015,06,23,13,14,21.10
2015,06,23,13,15,21.10
2015,06,23,13,16,21.00
2015,06,23,13,17,20.90
2015,06,23,13,18,20.80
2015,06,23,13,19,20.80
2015,06,23,13,20,20.80
2015,06,23,13,21,20.90
2015,06,23,13,22,21.00
2015,06,23,13,23,21.00
2015,06,23,13,24,21.00
2015,06,23,13,25,21.10
2015,06,23,13,26,21.30
2015,06,23,13,27,21.50
2015,06,23,13,28,21.60
2015,06,23,13,29,21.60
2015,06,23,13,30,21.70
2015,06,23,13,31,21.70
2015,06,23,13,32,21.60
2015,06,23,13,33,21.70
2015,06,23,13,34,21.80
2015,06,23,13,35,21.70
2015,06,23,13,36,21.80
2015,06,23,13,37,21.80
2015,06,23,13,38,21.70
2015,06,23,13,39,21.70
2015,06,23,13,40,21.80
2015,06,23,13,41,21.80
2015,06,23,13,42,21.80
2015,06,23,13,43,21.70
2015,06,23,13,44,21.50
2015,06,23,13,45,21.50
2015,06,23,13,46,21.50
2015,06,23,13,47,21.60
2015,06,23,13,48,21.60
2015,06,23,13,49,21.60
2015,06,23,13,50,21.70
2015,06,23,13,51,21.70
2015,06,23,13,52,21.60
2015,06,23,13,53,21.60
2015,06,23,13,54,21.60
2015,06,23,13,55,21.70
2015,06,23,13,56,21.80
2015,06,23,13,57,21.80
2015,06,23,13,58,21.90
2015,06,23,13,59,22.00
2015,06,23,14,00,22.00
2015,06,23,14,01,22.10
2015,06,23,14,02,22.10
2015,06,23,14,03,22.10
2015,06,23,14,04,22.20
2015,06,23,14,05,22.20
2015,06,23,14,06,22.30
2015,06,23,14,07,22.30
2015,06,23,14,08,22.20
2015,06,23,14,09,22.20
2015,06,23,14,10,22.20
2015,06,23,14,11,22.10
2015,06,23,14,12,22.10
2015,06,23,14,13,22.10
2015,06,23,14,14,22.10
2015,06,23,14,15,22.10
2015,06,23,14,16,22.10
2015,06,23,14,17,22.10
2015,06,23,14,18,22.10
2015,06,23,14,19,22.10
2015,06,23,14,20,22.10
2015,06,23,14,21,22.20
2015,06,23,14,22,22.20
2015,06,23,14,23,22.20
2015,06,23,14,24,22.20
2015,06,23,14,25,22.20
2015,06,23,14,26,22.10
2015,06,23,14,27,22.10
2015,06,23,14,28,22.10
2015,06,23,14,29,22.10
2015,06,23,14,30,22.10
2015,06,23,14,31,22.10
2015,06,23,14,32,22.10
2015,06,23,14,33,22.10
2015,06,23,14,34,22.10
2015,06,23,14,35,22.10
2015,06,23,14,36,22.20
2015,06,23,14,37,22.30
2015,06,23,14,38,22.30
2015,06,23,14,39,22.10
2015,06,23,14,40,22.10
2015,06,23,14,41,22.00
2015,06,23,14,42,22.00
2015,06,23,14,43,22.00
2015,06,23,14,44,22.00
2015,06,23,14,45,22.00
2015,06,23,14,46,22.00
2015,06,23,14,47,22.00
2015,06,23,14,48,22.10
2015,06,23,14,49,22.10
2015,06,23,14,50,22.20
2015,06,23,14,51,22.30
2015,06,23,14,52,22.30
2015,06,23,14,53,22.30
2015,06,23,14,54,22.30
2015,06,23,14,55,22.30
2015,06,23,14,56,22.30
2015,06,23,14,57,22.30
2015,06,23,14,58,22.30
2015,06,23,14,59,22.40
2015,06,23,15,00,22.40
2015,06,23,15,01,22.50
2015,06,23,15,02,22.60
2015,06,23,15,03,22.70
2015,06,23,15,04,22.80
2015,06,23,15,05,23.00
2015,06,23,15,06,23.10
2015,06,23,15,07,23.20
2015,06,23,15,08,23.20
2015,06,23,15,09,23.20
2015,06,23,15,10,23.20
2015,06,23,15,11,23.20
2015,06,23,15,12,23.40
2015,06,23,15,13,23.50
2015,06,23,15,14,23.60
2015,06,23,15,15,23.60
2015,06,23,15,16,23.60
2015,06,23,15,17,23.50
2015,06,23,15,18,23.60
2015,06,23,15,19,23.60
2015,06,23,15,20,23.60
2015,06,23,15,21,23.60
2015,06,23,15,22,23.60
2015,06,23,15,23,23.60
2015,06,23,15,24,23.60
2015,06,23,15,25,23.60
2015,06,23,15,26,23.60
2015,06,23,15,27,23.60
2015,06,23,15,28,23.60
2015,06,23,15,29,23.50
2015,06,23,15,30,23.50
2015,06,23,15,31,23.60
2015,06,23,15,32,23.70
2015,06,23,15,33,23.80
2015,06,23,15,34,23.70
2015,06,23,15,35,23.70
2015,06,23,15,36,23.60
2015,06,23,15,37,23.50
2015,06,23,15,38,23.40
2015,06,23,15,39,23.40
2015,06,23,15,40,23.40
2015,06,23,15,41,23.30
2015,06,23,15,42,23.30
2015,06,23,15,43,23.30
2015,06,23,15,44,23.30
2015,06,23,15,45,23.30
2015,06,23,15,46,23.40
2015,06,23,15,47,23.50
2015,06,23,15,48,23.60
2015,06,23,15,49,23.50
2015,06,23,15,50,23.50
2015,06,23,15,51,23.60
2015,06,23,15,52,23.60
2015,06,23,15,53,23.60
2015,06,23,15,54,23.60
2015,06,23,15,55,23.60
2015,06,23,15,56,23.70
2015,06,23,15,57,23.70
2015,06,23,15,58,23.70
2015,06,23,15,59,23.70
2015,06,23,16,00,23.70
2015,06,23,16,01,23.60
2015,06,23,16,02,23.60
2015,06,23,16,03,23.50
2015,06,23,16,04,23.40
2015,06,23,16,05,23.40
2015,06,23,16,06,23.50
2015,06,23,16,07,23.50
2015,06,23,16,08,23.50
2015,06,23,16,09,23.60
2015,06,23,16,10,23.60
2015,06,23,16,11,23.60
2015,06,23,16,12,23.70
2015,06,23,16,13,23.70
2015,06,23,16,14,23.80
2015,06,23,16,15,23.80
2015,06,23,16,16,23.80
2015,06,23,16,17,23.80
2015,06,23,16,18,23.70
2015,06,23,16,19,23.80
2015,06,23,16,20,23.80
2015,06,23,16,21,23.90
2015,06,23,16,22,24.00
2015,06,23,16,23,24.00
2015,06,23,16,24,23.90
2015,06,23,16,25,23.90
2015,06,23,16,26,23.90
2015,06,23,16,27,23.80
2015,06,23,16,28,23.80
2015,06,23,16,29,23.70
2015,06,23,16,30,23.60
2015,06,23,16,31,23.50
2015,06,23,16,32,23.40
2015,06,23,16,33,23.40
2015,06,23,16,34,23.40
2015,06,23,16,35,23.40
2015,06,23,16,36,23.40
2015,06,23,16,37,23.50
2015,06,23,16,38,23.50
2015,06,23,16,39,23.50
2015,06,23,16,40,23.50
2015,06,23,16,41,23.50
2015,06,23,16,42,23.60
2015,06,23,16,43,23.60
2015,06,23,16,44,23.60
2015,06,23,16,45,23.60
2015,06,23,16,46,23.50
2015,06,23,16,47,23.50
2015,06,23,16,48,23.50
2015,06,23,16,49,23.60
2015,06,23,16,50,23.70
2015,06,23,16,51,23.80
2015,06,23,16,52,23.80
2015,06,23,16,53,23.80
2015,06,23,16,54,23.80
2015,06,23,16,55,23.80
2015,06,23,16,56,23.80
2015,06,23,16,57,23.80
2015,06,23,16,58,23.80
2015,06,23,16,59,23.80
2015,06,23,17,00,23.90
2015,06,23,17,01,24.00
2015,06,23,17,02,24.00
2015,06,23,17,03,23.90
2015,06,23,17,04,23.90
2015,06,23,17,05,23.90
2015,06,23,17,06,23.90
2015,06,23,17,07,23.90
2015,06,23,17,08,23.90
2015,06,23,17,09,23.90
2015,06,23,17,10,23.90
2015,06,23,17,11,23.90
2015,06,23,17,12,23.90
2015,06,23,17,13,23.90
2015,06,23,17,14,23.90
2015,06,23,17,15,23.90
2015,06,23,17,16,23.90
2015,06,23,17,17,24.00
2015,06,23,17,18,24.10
2015,06,23,17,19,24.10
2015,06,23,17,20,24.10
2015,06,23,17,21,24.20
2015,06,23,17,22,24.20
2015,06,23,17,23,24.30
2015,06,23,17,24,24.30
2015,06,23,17,25,24.40
2015,06,23,17,26,24.40
2015,06,23,17,27,24.50
2015,06,23,17,28,24.60
2015,06,23,17,29,24.60
2015,06,23,17,30,24.60
2015,06,23,17,31,24.60
2015,06,23,17,32,24.60
2015,06,23,17,33,24.70
2015,06,23,17,34,24.70
2015,06,23,17,35,24.70
2015,06,23,17,36,24.60
2015,06,23,17,37,24.60
2015,06,23,17,38,24.60
2015,06,23,17,39,24.50
2015,06,23,17,40,24.60
2015,06,23,17,41,24.70
2015,06,23,17,42,24.80
2015,06,23,17,43,24.80
2015,06,23,17,44,24.80
2015,06,23,17,45,24.70
2015,06,23,17,46,24.70
2015,06,23,17,47,24.60
2015,06,23,17,48,24.60
2015,06,23,17,49,24.50
2015,06,23,17,50,24.50
2015,06,23,17,51,24.40
2015,06,23,17,52,24.50
2015,06,23,17,53,24.50
2015,06,23,17,54,24.60
2015,06,23,17,55,24.60
2015,06,23,17,56,24.70
2015,06,23,17,57,24.70
2015,06,23,17,58,24.70
2015,06,23,17,59,24.70
2015,06,23,18,00,24.80
2015,06,23,18,01,24.80
2015,06,23,18,02,24.80
2015,06,23,18,03,24.80
2015,06,23,18,04,24.80
2015,06,23,18,05,24.70
2015,06,23,18,06,24.70
2015,06,23,18,07,24.80
2015,06,23,18,08,24.80
2015,06,23,18,09,24.80
2015,06,23,18,10,24.80
2015,06,23,18,11,24.70
2015,06,23,18,12,24.70
2015,06,23,18,13,24.70
2015,06,23,18,14,24.60
2015,06,23,18,15,24.60
2015,06,23,18,16,24.60
2015,06,23,18,17,24.60
2015,06,23,18,18,24.60
2015,06,23,18,19,24.60
2015,06,23,18,20,24.60
2015,06,23,18,21,24.60
2015,06,23,18,22,24.60
2015,06,23,18,23,24.60
2015,06,23,18,24,24.60
2015,06,23,18,25,24.70
2015,06,23,18,26,24.70
2015,06,23,18,27,24.70
2015,06,23,18,28,24.70
2015,06,23,18,29,24.70